Minot AFB, ND

5:14 AM CDT on October 16, 2019 (GMT -0500)
Minot Air Force Base

Weather History for KMIB - August, 2019

Change the Weather History Date:

Tuesday, August 27, 2019

  Actual Average Record
Temperature  
Mean Temperature 58 °F -  
Max Temperature 66 °F 78 °F 91 °F (1996)
Min Temperature 51 °F 52 °F 44 °F (2012)
Degree Days  
Heating Degree Days 6    
Growing Degree Days 8 (Base 50)    
Moisture  
Dew Point 51 °F    
Average Humidity 80    
Maximum Humidity 94    
Minimum Humidity 50    
Precipitation  
Precipitation 0.18 in - - ()
Sea Level Pressure  
Sea Level Pressure 29.85 in    
Wind  
Wind Speed 16 mph ()    
Max Wind Speed 26 mph    
Max Gust Speed 38 mph    
Visibility 9.8 miles    
Events Rain    
Averages and records for this station are not official NWS values.
T = Trace of Precipitation, MM = Missing Value Source: Averaged Metar Reports

Daily Weather History Graph

Daily Weather History Graph

Search for Another Location

Airport or City:

Astronomy

Aug. 27, 2019 Rise Set
Actual Time 6:55 AM CDT 8:37 PM CDT
Civil Twilight 6:22 AM CDT 9:10 PM CDT
Nautical Twilight 5:42 AM CDT 9:50 PM CDT
Astronomical Twilight 4:57 AM CDT 10:34 PM CDT
Moon 3:04 AM CDT (8/27) 7:16 PM CDT (8/27)
Length of Visible Light 14h 47m
Length of Day
13h 41m
Waning Crescent, 11% of the Moon is Illuminated
Aug 27
Waning Crescent
Aug 30
New
Sep 5
First Quarter
Sep 13
Full
Sep 21
Last Quarter

Hourly Weather History & Observations

Time (CDT) Temp. Dew Point Humidity Pressure Visibility Wind Dir Wind Speed Gust Speed Precip Events Conditions
12:56 AM 53.1 °F 45.3 °F 75% 29.81 in 10.0 mi WNW 10.4 mph - N/A   Clear
1:56 AM 54.1 °F 45.0 °F 71% 29.81 in 10.0 mi WNW 10.4 mph - N/A   Clear
2:56 AM 52.9 °F 45.9 °F 77% 29.81 in 10.0 mi West 10.4 mph - N/A   Clear
3:56 AM 53.1 °F 45.7 °F 76% 29.81 in 10.0 mi West 12.7 mph - N/A   Scattered Clouds
4:56 AM 54.1 °F 46.0 °F 74% 29.81 in 10.0 mi WNW 12.7 mph - N/A   Overcast
5:56 AM 54.5 °F 46.4 °F 74% 29.79 in 10.0 mi West 16.1 mph 24.2 mph N/A   Overcast
6:28 AM 53.6 °F 46.4 °F 77% 29.81 in 10.0 mi WNW 15.0 mph 21.9 mph N/A   Light Drizzle
6:56 AM 52.9 °F 48.2 °F 84% 29.81 in 10.0 mi WNW 21.9 mph 27.6 mph 0.00 in Rain Light Rain
7:21 AM 51.8 °F 48.2 °F 88% 29.81 in 10.0 mi WNW 23.0 mph 32.2 mph N/A Rain Light Rain
7:51 AM 51.8 °F 48.2 °F 88% 29.81 in 10.0 mi WNW 18.4 mph 32.2 mph N/A Rain Light Rain
7:56 AM 51.6 °F 48.7 °F 90% 29.81 in 10.0 mi WNW 23.0 mph 32.2 mph 0.05 in Rain Light Rain
8:04 AM 51.8 °F 48.2 °F 88% 29.81 in 6.0 mi WNW 20.7 mph 29.9 mph N/A Rain Rain
8:06 AM 51.8 °F 50.0 °F 94% 29.81 in 10.0 mi WNW 21.9 mph 29.9 mph N/A Rain Rain
8:08 AM 51.8 °F 50.0 °F 94% 29.81 in 10.0 mi WNW 21.9 mph 29.9 mph N/A Rain Light Rain
8:11 AM 51.8 °F 48.2 °F 88% 29.81 in 10.0 mi WNW 19.6 mph 28.8 mph N/A Rain Light Rain
8:21 AM 51.8 °F 50.0 °F 94% 29.81 in 10.0 mi WNW 20.7 mph 29.9 mph N/A Rain Light Rain
8:23 AM 51.8 °F 50.0 °F 94% 29.81 in 9.0 mi WNW 20.7 mph 29.9 mph N/A Rain Light Rain
8:56 AM 51.8 °F 49.5 °F 92% 29.82 in 7.0 mi WNW 23.0 mph 27.6 mph 0.11 in Rain Light Rain
9:01 AM 51.8 °F 50.0 °F 94% 29.82 in 10.0 mi WNW 18.4 mph 28.8 mph N/A Rain Light Rain
9:56 AM 53.8 °F 51.4 °F 92% 29.85 in 10.0 mi NW 19.6 mph 29.9 mph 0.02 in Rain Light Rain
10:39 AM 55.4 °F 53.6 °F 94% 29.86 in 10.0 mi NW 16.1 mph 26.5 mph N/A   Overcast
10:49 AM 55.4 °F 53.6 °F 94% 29.86 in 10.0 mi NW 17.3 mph 28.8 mph N/A   Light Drizzle
10:56 AM 56.5 °F 54.0 °F 91% 29.85 in 10.0 mi NW 19.6 mph 27.6 mph 0.00 in   Light Drizzle
11:06 AM 55.4 °F 53.6 °F 94% 29.86 in 10.0 mi NW 17.3 mph 26.5 mph N/A   Light Drizzle
11:17 AM 57.2 °F 53.6 °F 88% 29.86 in 10.0 mi NW 19.6 mph 28.8 mph N/A   Overcast
11:27 AM 57.2 °F 53.6 °F 88% 29.87 in 10.0 mi NW 24.2 mph 31.1 mph N/A   Overcast
11:42 AM 59.0 °F 53.6 °F 82% 29.86 in 10.0 mi NW 19.6 mph 29.9 mph N/A   Overcast
11:56 AM 59.5 °F 53.4 °F 80% 29.86 in 10.0 mi NW 24.2 mph 28.8 mph 0.00 in   Mostly Cloudy
12:11 PM 60.8 °F 53.6 °F 77% 29.86 in 10.0 mi WNW 21.9 mph 28.8 mph N/A   Mostly Cloudy
12:21 PM 60.8 °F 53.6 °F 77% 29.86 in 10.0 mi WNW 20.7 mph 32.2 mph N/A   Mostly Cloudy
12:26 PM 60.8 °F 53.6 °F 77% 29.86 in 10.0 mi WNW 25.3 mph 33.4 mph N/A   Mostly Cloudy
12:51 PM 59.0 °F 53.6 °F 82% 29.87 in 10.0 mi WNW 21.9 mph 32.2 mph N/A   Mostly Cloudy
12:56 PM 60.3 °F 53.4 °F 78% 29.86 in 10.0 mi NW 26.5 mph 35.7 mph N/A   Mostly Cloudy
1:01 PM 60.8 °F 53.6 °F 77% 29.86 in 10.0 mi NW 24.2 mph 35.7 mph N/A   Mostly Cloudy
1:11 PM 62.6 °F 53.6 °F 72% 29.86 in 10.0 mi NW 19.6 mph 29.9 mph N/A   Mostly Cloudy
1:26 PM 62.6 °F 53.6 °F 72% 29.86 in 10.0 mi WNW 24.2 mph 35.7 mph N/A   Mostly Cloudy
1:31 PM 62.6 °F 51.8 °F 68% 29.86 in 10.0 mi WNW 26.5 mph 35.7 mph N/A   Mostly Cloudy
1:56 PM 60.8 °F 52.5 °F 74% 29.86 in 10.0 mi NW 26.5 mph 34.5 mph N/A   Scattered Clouds
2:28 PM 62.6 °F 53.6 °F 72% 29.86 in 10.0 mi NW 21.9 mph 31.1 mph N/A   Light Drizzle
2:40 PM 62.6 °F 53.6 °F 72% 29.87 in 8.0 mi WNW 25.3 mph 32.2 mph N/A   Scattered Clouds
2:41 PM 62.6 °F 53.6 °F 72% 29.87 in 8.0 mi WNW 26.5 mph 32.2 mph N/A Rain Light Rain
2:57 PM 59.0 °F 55.4 °F 88% 29.88 in 10.0 mi NW 13.8 mph 23.0 mph N/A   Mostly Cloudy
3:56 PM 66.6 °F 53.1 °F 62% 29.86 in 10.0 mi NW 25.3 mph 38.0 mph 0.00 in   Scattered Clouds
4:33 PM 62.6 °F 51.8 °F 68% 29.87 in 10.0 mi NW 21.9 mph 28.8 mph N/A Rain Light Rain
4:48 PM 60.8 °F 53.6 °F 77% 29.88 in 10.0 mi NW 13.8 mph 34.5 mph N/A   Mostly Cloudy
4:56 PM 63.3 °F 54.1 °F 72% 29.87 in 10.0 mi NNW 20.7 mph 34.5 mph 0.00 in   Mostly Cloudy
5:56 PM 65.7 °F 50.0 °F 57% 29.88 in 10.0 mi NW 21.9 mph 29.9 mph N/A   Scattered Clouds
6:56 PM 64.6 °F 45.5 °F 50% 29.89 in 10.0 mi NW 24.2 mph 31.1 mph N/A   Partly Cloudy
7:56 PM 62.1 °F 47.5 °F 59% 29.91 in 10.0 mi NW 15.0 mph 21.9 mph N/A   Clear
8:56 PM 58.1 °F 47.7 °F 68% 29.90 in 10.0 mi NW 10.4 mph - N/A   Clear
9:56 PM 55.4 °F 48.9 °F 79% 29.91 in 10.0 mi Calm Calm - N/A   Clear
10:56 PM 53.2 °F 48.6 °F 84% 29.92 in 10.0 mi WNW 9.2 mph - N/A   Clear
11:56 PM 52.7 °F 48.4 °F 85% 29.94 in 10.0 mi WNW 9.2 mph - N/A   Clear